Tracking 29892 objects as of 21-Nov-2024
HD Live streaming from Space Station
objects crossing your sky now

CZ-6A DEB

Track CZ-6A DEB now!
10-day predictions


NORAD ID: 54924
Int'l Code: 2022-151RM
Perigee: 758.6 km
Apogee: 817.2 km
Inclination: 98.8 °
Period: 100.5 minutes
Semi major axis: 7158 km
RCS: Unknown
Launch date: November 11, 2022
Source: People's Republic of China (PRC)
Launch site: Taiyaun Space Center, China (TSC)

Note: This is SATELLITE DEBRIS
Your satellite tracking list
Your tracking list is empty




NASA's NSSDC Master Catalog

Two Line Element Set (TLE):
1 54924U 22151RM  24325.49150111  .00008449  00000-0  30540-2 0  9992
2 54924  98.7738 344.7468 0040930 204.4268 155.4976 14.33287583104945
Source of the keplerian elements: AFSPC